Location: Malmö
(55.6090°N, 13.0007°E)
Time: 01:16:19
(UTC+01:00)

ISS - Pass Details

Date: 26 January 2021
Orbit: 417 x 422 km, 51.6° (Epoch: 06 March)

Event Time Altitude Azimuth Distance (km) Brightness Sun altitude
Rises 17:09:53 0° 225° (SW) 2,366 1.7 -5.7°
Reaches altitude 10° 17:12:13 10° 211° (SSW) 1,505 0.0 -6.0°
Maximum altitude 17:15:00 24° 156° (SSE) 930 -2.0 -6.4°
Drops below altitude 10° 17:17:47 10° 101° (E) 1,512 -1.4 -6.7°
Enters shadow 17:18:34 - 94° (E) 1,789 -1.1 -6.8°
